Location: Bottom School (historical)
(37.9078°N, 89.3593°W)
Time: 19:58:08
(UTC+00:00)

SL-4 R/B - Pass Details

Date: 30 June 2022
Orbit: 425 x 653 km, 51.6° (Epoch: 16 August)

Event Time Altitude Azimuth Distance (km) Brightness Sun altitude
Exits shadow 08:48:06 - 293° (WNW) 1,821 4.5 -17.4°
Reaches altitude 10° 08:48:45 10° 300° (WNW) 1,650 4.3 -17.4°
Maximum altitude 08:51:13 17° 342° (NNW) 1,332 4.3 -17.0°
Drops below altitude 10° 08:53:47 10° 23° (NNE) 1,738 5.7 -16.7°
Sets 08:56:44 0° 44° (NE) 2,684 7.4 -16.3°
